This demonstration page uses our WeatherBlox Daily Observations layout. Learn more.

Left ArrowRight Arrow

34.16533, -84.80231

Hourly Observations for February 8, 2022

Temp ( °F °C ) Dew Point ( °F °C ) Humidity (%) Winds ( mph kmh ) Pressure ( in mb ) Visibility ( mi km ) Precip ( " mm )
12:15 am 00:15 Mostly Clear 32 0 30 -1 93 93 Calm 30.21 1023 9 14 0.00 0.00
12:35 am 00:35 Mostly Cloudy 32 0 30 -1 93 93 Calm 30.21 1023 10 16 0.00 0.00
12:55 am 00:55 Cloudy 32 0 30 -1 93 93 Calm 30.22 1023 10 16 0.00 0.00
1:15 am 01:15 Cloudy 32 0 30 -1 93 93 Calm 30.21 1023 10 16 0.00 0.00
1:35 am 01:35 Mostly Cloudy 32 0 28 -2 87 87 Calm 30.21 1023 10 16 0.00 0.00
1:55 am 01:55 Partly Cloudy 32 0 28 -2 87 87 Calm 30.22 1023 10 16 0.00 0.00
2:15 am 02:15 Mostly Clear 32 0 28 -2 87 87 Calm 30.22 1023 10 16 0.00 0.00
2:35 am 02:35 Clear 30 -1 28 -2 93 93 Calm 30.23 1024 10 16 0.00 0.00
2:55 am 02:55 Clear 30 -1 27 -3 86 86 W 3 6 30.22 1023 10 16 0.00 0.00
3:15 am 03:15 Clear 30 -1 28 -2 93 93 Calm 30.22 1023 10 16 0.00 0.00
3:35 am 03:35 Clear 30 -1 27 -3 86 86 Calm 30.22 1023 10 16 0.00 0.00
3:55 am 03:55 Clear 32 0 27 -3 80 80 Calm 30.22 1023 10 16 0.00 0.00
4:15 am 04:15 Clear 30 -1 27 -3 86 86 Calm 30.22 1023 10 16 0.00 0.00
4:35 am 04:35 Clear 30 -1 27 -3 86 86 Calm 30.22 1023 10 16 0.00 0.00
4:55 am 04:55 Clear 30 -1 27 -3 86 86 Calm 30.22 1023 10 16 0.00 0.00
5:15 am 05:15 Clear 30 -1 27 -3 86 86 Calm 30.23 1024 10 16 0.00 0.00
5:35 am 05:35 Clear 28 -2 27 -3 93 93 Calm 30.25 1024 10 16 0.00 0.00
5:55 am 05:55 Clear 28 -2 27 -3 93 93 Calm 30.25 1024 10 16 0.00 0.00
6:15 am 06:15 Clear 28 -2 27 -3 93 93 Calm 30.25 1024 10 16 0.00 0.00
6:35 am 06:35 Clear 28 -2 25 -4 86 86 Calm 30.25 1024 10 16 0.00 0.00
6:55 am 06:55 Clear 28 -2 27 -3 93 93 Calm 30.26 1025 10 16 0.00 0.00
7:15 am 07:15 Clear 27 -3 27 -3 100 100 Calm 30.26 1025 9 14 0.00 0.00
7:35 am 07:35 Sunny 27 -3 27 -3 100 100 Calm 30.25 1024 9 14 0.00 0.00
7:55 am 07:55 Sunny 28 -2 25 -4 86 86 W 3 6 30.27 1025 9 14 0.00 0.00
8:15 am 08:15 Sunny 28 -2 27 -3 93 93 Calm 30.27 1025 9 14 0.00 0.00
8:35 am 08:35 Sunny 32 0 27 -3 80 80 Calm 30.27 1025 9 14 0.00 0.00
8:55 am 08:55 Sunny 34 1 27 -3 75 75 W 3 6 30.28 1025 10 16 0.00 0.00
9:15 am 09:15 Sunny 34 1 25 -4 70 70 Calm 30.28 1025 10 16 0.00 0.00
9:35 am 09:35 Sunny 36 2 27 -3 70 70 W 5 7 30.29 1026 10 16 0.00 0.00
9:55 am 09:55 Sunny 37 3 27 -3 65 65 Calm 30.28 1025 10 16 0.00 0.00
10:15 am 10:15 Sunny 39 4 27 -3 61 61 Calm 30.28 1025 10 16 0.00 0.00
10:35 am 10:35 Sunny 41 5 27 -3 57 57 Calm 30.27 1025 10 16 0.00 0.00
10:55 am 10:55 Sunny 43 6 25 -4 49 49 VRB 5 7 30.28 1025 10 16 0.00 0.00
11:15 am 11:15 Sunny 45 7 25 -4 46 46 VRB 3 6 30.27 1025 10 16 0.00 0.00
11:35 am 11:35 Sunny 46 8 23 -5 40 40 NNE 12 19 30.27 1025 10 16 0.00 0.00
11:55 am 11:55 Sunny 48 9 23 -5 37 37 NNE 9 15 30.25 1024 10 16 0.00 0.00
12:15 pm 12:15 Sunny 48 9 23 -5 37 37 VRB 8 13 30.24 1024 10 16 0.00 0.00
12:35 pm 12:35 Sunny 50 10 23 -5 35 35 N 10 17 30.23 1024 10 16 0.00 0.00
12:55 pm 12:55 Sunny 50 10 25 -4 37 37 NW 9 15 30.22 1023 10 16 0.00 0.00
1:15 pm 13:15 Sunny 50 10 23 -5 35 35 NW 8 13 30.21 1023 10 16 0.00 0.00
1:35 pm 13:35 Sunny 50 10 23 -5 35 35 NNW 9 15 30.20 1023 10 16 0.00 0.00
1:55 pm 13:55 Sunny 52 11 23 -5 32 32 VRB 6 9 30.19 1022 10 16 0.00 0.00
2:15 pm 14:15 Sunny 52 11 23 -5 32 32 NNE 9 15 30.18 1022 10 16 0.00 0.00
2:35 pm 14:35 Sunny 52 11 25 -4 35 35 N 7 11 30.17 1022 10 16 0.00 0.00
2:55 pm 14:55 Sunny 52 11 25 -4 35 35 VRB 7 11 30.16 1021 10 16 0.00 0.00
3:15 pm 15:15 Sunny 54 12 23 -5 30 30 NW 7 11 30.15 1021 10 16 0.00 0.00
3:35 pm 15:35 Sunny 54 12 25 -4 33 33 N 7 11 30.14 1021 10 16 0.00 0.00
3:55 pm 15:55 Sunny 54 12 25 -4 33 33 VRB 5 7 30.14 1021 10 16 0.00 0.00
4:15 pm 16:15 Sunny 55 13 25 -4 31 31 VRB 5 7 30.14 1021 10 16 0.00 0.00
4:35 pm 16:35 Sunny 54 12 25 -4 33 33 Calm 30.14 1021 10 16 0.00 0.00
4:55 pm 16:55 Sunny 54 12 23 -5 30 30 VRB 5 7 30.14 1021 10 16 0.00 0.00
5:15 pm 17:15 Sunny 54 12 25 -4 33 33 VRB 6 9 30.14 1021 10 16 0.00 0.00
5:35 pm 17:35 Sunny 54 12 23 -5 30 30 W 7 11 30.14 1021 10 16 0.00 0.00
5:55 pm 17:55 Sunny 52 11 25 -4 35 35 VRB 3 6 30.15 1021 10 16 0.00 0.00
6:15 pm 18:15 Sunny 52 11 25 -4 35 35 Calm 30.15 1021 10 16 0.00 0.00
6:35 pm 18:35 Clear 50 10 25 -4 37 37 Calm 30.15 1021 10 16 0.00 0.00
6:55 pm 18:55 Clear 48 9 25 -4 40 40 Calm 30.16 1021 10 16 0.00 0.00
7:15 pm 19:15 Mostly Clear 46 8 27 -3 46 46 Calm 30.17 1022 10 16 0.00 0.00
7:35 pm 19:35 Clear 45 7 27 -3 49 49 Calm 30.18 1022 10 16 0.00 0.00
7:55 pm 19:55 Mostly Clear 43 6 27 -3 53 53 Calm 30.18 1022 10 16 0.00 0.00
8:15 pm 20:15 Mostly Cloudy 43 6 27 -3 53 53 Calm 30.18 1022 10 16 0.00 0.00
8:35 pm 20:35 Cloudy 41 5 28 -2 61 61 Calm 30.18 1022 10 16 0.00 0.00
8:55 pm 20:55 Cloudy 39 4 30 -1 70 70 Calm 30.19 1022 10 16 0.00 0.00
9:15 pm 21:15 Cloudy 37 3 28 -2 70 70 Calm 30.20 1023 10 16 0.00 0.00
9:35 pm 21:35 Mostly Cloudy 36 2 30 -1 81 81 Calm 30.19 1022 10 16 0.00 0.00
9:55 pm 21:55 Partly Cloudy 36 2 30 -1 81 81 Calm 30.19 1022 10 16 0.00 0.00
10:15 pm 22:15 Clear 36 2 28 -2 75 75 Calm 30.19 1022 10 16 0.00 0.00
10:35 pm 22:35 Partly Cloudy 34 1 28 -2 81 81 Calm 30.20 1023 10 16 0.00 0.00
10:55 pm 22:55 Mostly Cloudy 34 1 30 -1 87 87 Calm 30.20 1023 10 16 0.00 0.00
11:15 pm 23:15 Mostly Clear 34 1 28 -2 81 81 Calm 30.20 1023 10 16 0.00 0.00
11:35 pm 23:35 Mostly Clear 32 0 28 -2 87 87 Calm 30.19 1022 10 16 0.00 0.00
11:55 pm 23:55 Clear 32 0 28 -2 87 87 Calm 30.19 1022 10 16 0.00 0.00

Powered by AerisWeather